Tracking 22283 objects as of 28-Jan-2021
HD Live streaming from Space Station
objects crossing your sky now

EXPLORER 16

Track EXPLORER 16 now!
10-day predictions
EXPLORER 16 is classified as:


NORAD ID: 506
Int'l Code: 1962-070A
Perigee: 749.6 km
Apogee: 1,155.8 km
Inclination: 52.0 °
Period: 104.0 minutes
Semi major axis: 7323 km
RCS: 0.6378 m2 (medium)
Launch date: December 16, 1962
Source: United States (US)
Launch site: WALLOPS ISLAND (WLPIS)
aabbcc
Your satellite tracking list
Your tracking list is empty




NASA's NSSDC Master Catalog

Two Line Element Set (TLE):
1 00506U 62070A   21027.89275636 -.00000119  00000-0  17075-4 0  9990
2 00506  52.0047 315.0670 0277334 316.4729  41.4602 13.85177138936202
Source of the keplerian elements: AFSPC